20050114,000018,866197,32.244997,-123.489711,13.899,32.973,0.290,0.839
20050114,000047,866225,32.245017,-123.489726,13.900,32.971,0.290,0.837
20050114,000118,866256,32.245073,-123.489751,13.899,32.971,0.299,0.854
20050114,000148,866286,32.245147,-123.489766,13.899,32.972,0.290,0.836
20050114,000218,866316,32.245180,-123.489765,13.900,32.969,0.290,0.839
20050114,000249,866347,32.245163,-123.489741,13.900,32.970,0.290,0.837
20050114,000318,866377,32.245195,-123.489740,13.901,32.968,0.290,0.837
20050114,000348,866407,32.245222,-123.489726,13.902,32.968,0.290,0.838
20050114,000418,866436,32.245217,-123.489706,13.904,32.968,0.290,0.838
20050114,000448,866466,32.245197,-123.489675,13.907,32.969,0.290,0.836
20050114,000519,866497,32.245153,-123.489641,13.909,32.969,0.290,0.838
20050114,000548,866527,32.245142,-123.489645,13.911,32.970,0.290,0.836
20050114,000618,866557,32.245180,-123.489636,13.913,32.970,0.290,0.835
20050114,000648,866586,32.245215,-123.489633,13.912,32.971,0.290,0.834
20050114,000718,866616,32.245230,-123.489610,13.909,32.971,0.290,0.832
20050114,000748,866646,32.245208,-123.489585,13.909,32.971,0.290,0.833
20050114,000818,866677,32.245170,-123.489548,13.907,32.971,0.299,0.855
20050114,000848,866707,32.245125,-123.489493,13.908,32.970,0.299,0.857
20050114,000918,866737,32.245072,-123.489475,13.906,32.971,0.290,0.836
20050114,000949,866768,32.245023,-123.489430,13.901,32.972,0.290,0.837
20050114,001018,866796,32.245015,-123.489425,13.900,32.971,0.299,0.857
20050114,001048,866826,32.245062,-123.489423,13.902,32.968,0.290,0.839
20050114,001118,866857,32.245133,-123.489425,13.903,32.969,0.290,0.831
20050114,001148,866887,32.245170,-123.489418,13.901,32.971,0.290,0.836
20050114,001219,866918,32.245200,-123.489383,13.898,32.972,0.290,0.838
20050114,001248,866946,32.245198,-123.489350,13.898,32.970,0.290,0.838
20050114,001319,866978,32.245203,-123.489346,13.902,32.967,0.299,0.853
20050114,001348,867006,32.245185,-123.489298,13.904,32.967,0.290,0.834
20050114,001418,867037,32.245158,-123.489251,13.907,32.966,0.290,0.836
20050114,001448,867067,32.245110,-123.489198,13.907,32.970,0.299,0.848
20050114,001518,867096,32.245070,-123.489193,13.907,32.969,0.290,0.829
20050114,001548,867126,32.245055,-123.489175,13.907,32.970,0.290,0.811
20050114,001618,867156,32.245070,-123.489205,13.907,32.970,0.299,0.826
20050114,001648,867187,32.245112,-123.489230,13.905,32.970,0.290,0.816
20050114,001718,867217,32.245132,-123.489233,13.904,32.967,0.299,0.830
20050114,001748,867247,32.245125,-123.489225,13.904,32.967,0.290,0.810
20050114,001818,867276,32.245110,-123.489208,13.903,32.970,0.290,0.810
20050114,001849,867308,32.245062,-123.489183,13.904,32.969,0.290,0.809
20050114,001918,867336,32.245008,-123.489170,13.904,32.969,0.299,0.827
20050114,001949,867367,32.244998,-123.489145,13.903,32.971,0.290,0.808
20050114,002018,867397,32.245020,-123.489150,13.900,32.971,0.299,0.821
20050114,002049,867428,32.245047,-123.489148,13.898,32.970,0.299,0.818
20050114,002118,867456,32.245055,-123.489113,13.898,32.971,0.290,0.800
20050114,002149,867488,32.245042,-123.489086,13.899,32.968,0.290,0.799
20050114,002219,867517,32.245013,-123.489028,13.904,32.967,0.290,0.797
20050114,002249,867547,32.244977,-123.489000,13.907,32.968,0.290,0.796
20050114,002319,867577,32.244943,-123.488940,13.910,32.967,0.299,0.811
20050114,002349,867608,32.244905,-123.488903,13.912,32.968,0.290,0.794
20050114,002419,867638,32.244845,-123.488851,13.912,32.969,0.299,0.807
20050114,002449,867667,32.244782,-123.488816,13.913,32.970,0.290,0.790
20050114,002519,867697,32.244725,-123.488778,13.914,32.970,0.290,0.790
20050114,002549,867727,32.244700,-123.488771,13.914,32.968,0.290,0.787
20050114,002619,867757,32.244683,-123.488755,13.915,32.970,0.290,0.788
20050114,002649,867788,32.244660,-123.488715,13.915,32.974,0.290,0.789
20050114,002719,867818,32.244618,-123.488673,13.916,32.969,0.290,0.786
20050114,002749,867847,32.244582,-123.488628,13.921,32.967,0.299,0.801
20050114,002819,867877,32.244550,-123.488570,13.920,32.970,0.290,0.783
20050114,002849,867907,32.244515,-123.488515,13.922,32.969,0.290,0.780
20050114,002919,867938,32.244460,-123.488456,13.923,32.969,0.290,0.779
20050114,002949,867968,32.244407,-123.488396,13.923,32.968,0.290,0.778
20050114,003019,867998,32.244352,-123.488345,13.925,32.968,0.290,0.776
20050114,003049,868027,32.244285,-123.488300,13.923,32.969,0.290,0.774
20050114,003119,868057,32.244225,-123.488250,13.923,32.971,0.290,0.772
20050114,003149,868087,32.244207,-123.488238,13.923,32.971,0.299,0.787
20050114,003219,868118,32.244240,-123.488238,13.923,32.970,0.290,0.770
20050114,003249,868148,32.244258,-123.488198,13.923,32.970,0.290,0.768
20050114,003319,868177,32.244272,-123.488138,13.923,32.969,0.290,0.767
20050114,003349,868207,32.244248,-123.488073,13.924,32.971,0.299,0.781
20050114,003420,868239,32.244207,-123.488013,13.929,32.967,0.290,0.765
20050114,003449,868268,32.244162,-123.487946,13.929,32.969,0.290,0.764
20050114,003520,868298,32.244120,-123.487890,13.929,32.969,0.299,0.778
20050114,003550,868328,32.244077,-123.487815,13.928,32.970,0.290,0.762
20050114,003619,868357,32.244032,-123.487740,13.929,32.970,0.290,0.761
20050114,003650,868389,32.243972,-123.487678,13.929,32.970,0.290,0.761
20050114,003720,868419,32.243915,-123.487628,13.927,32.970,0.290,0.761
20050114,003750,868448,32.243883,-123.487586,13.925,32.971,0.299,0.777
20050114,003820,868478,32.243898,-123.487578,13.926,32.969,0.299,0.776
20050114,003849,868508,32.243942,-123.487551,13.926,32.969,0.299,0.776
20050114,003920,868539,32.244015,-123.487496,13.926,32.969,0.290,0.761
20050114,003950,868569,32.244083,-123.487426,13.926,32.968,0.290,0.761
20050114,004020,868598,32.244108,-123.487355,13.924,32.967,0.290,0.760
20050114,004050,868628,32.244090,-123.487285,13.925,32.969,0.299,0.775
20050114,004120,868658,32.244112,-123.487251,13.924,32.970,0.290,0.759
20050114,004150,868689,32.244170,-123.487256,13.926,32.968,0.299,0.774
20050114,004220,868719,32.244262,-123.487275,13.928,32.967,0.290,0.758
20050114,004250,868749,32.244392,-123.487303,13.926,32.971,0.290,0.757
20050114,004320,868778,32.244543,-123.487340,13.928,32.968,0.299,0.772
20050114,004350,868808,32.244665,-123.487350,13.930,32.967,0.290,0.756
20050114,004420,868838,32.244765,-123.487336,13.931,32.968,0.290,0.755
20050114,004451,868869,32.244885,-123.487338,13.930,32.968,0.290,0.755
20050114,004520,868899,32.245007,-123.487368,13.931,32.971,0.290,0.754
20050114,004550,868928,32.245108,-123.487366,13.928,32.968,0.299,0.769
20050114,004620,868958,32.245192,-123.487351,13.929,32.968,0.290,0.753
20050114,004650,868988,32.245280,-123.487346,13.931,32.969,0.290,0.752
20050114,004721,869019,32.245385,-123.487316,13.926,32.971,0.290,0.751
20050114,004750,869049,32.245468,-123.487308,13.923,32.971,0.290,0.750
20050114,004820,869079,32.245552,-123.487280,13.922,32.968,0.299,0.764
20050114,004851,869110,32.245628,-123.487275,13.923,32.967,0.290,0.748
20050114,004921,869140,32.245720,-123.487276,13.924,32.967,0.299,0.763
20050114,004950,869168,32.245825,-123.487255,13.924,32.966,0.290,0.748
20050114,005021,869199,32.245935,-123.487255,13.924,32.967,0.299,0.762
20050114,005051,869229,32.246062,-123.487245,13.926,32.967,0.299,0.762
20050114,005121,869259,32.246185,-123.487233,13.926,32.969,0.290,0.746
20050114,005151,869290,32.246280,-123.487220,13.923,32.969,0.299,0.761
20050114,005221,869320,32.246375,-123.487193,13.925,32.968,0.290,0.745
20050114,005252,869351,32.246457,-123.487180,13.923,32.969,0.290,0.744
20050114,005321,869379,32.246543,-123.487166,13.923,32.971,0.290,0.743
20050114,005351,869409,32.246622,-123.487173,13.920,32.969,0.299,0.758
20050114,005422,869440,32.246715,-123.487170,13.917,32.969,0.290,0.742
20050114,005451,869470,32.246802,-123.487156,13.917,32.966,0.290,0.741
20050114,005521,869500,32.246883,-123.487158,13.921,32.967,0.290,0.740
20050114,005551,869529,32.246958,-123.487151,13.922,32.967,0.299,0.754
20050114,005621,869559,32.247037,-123.487148,13.923,32.968,0.290,0.738
20050114,005651,869589,32.247115,-123.487151,13.923,32.967,0.290,0.738
20050114,005721,869620,32.247188,-123.487121,13.926,32.967,0.290,0.737
20050114,005751,869650,32.247268,-123.487111,13.927,32.971,0.290,0.736
20050114,005822,869680,32.247378,-123.487123,13.928,32.967,0.299,0.751
20050114,005852,869711,32.247460,-123.487118,13.930,32.966,0.290,0.735
20050114,005922,869741,32.247543,-123.487093,13.930,32.968,0.299,0.750
20050114,005951,869769,32.247615,-123.487076,13.928,32.969,0.290,0.734
20050114,010022,869800,32.247688,-123.487098,13.926,32.970,0.299,0.748
20050114,010052,869830,32.247728,-123.487200,13.925,32.968,0.290,0.733
20050114,010121,869859,32.247780,-123.487361,13.924,32.969,0.290,0.732
20050114,010152,869891,32.247833,-123.487633,13.922,32.968,0.290,0.731
20050114,010223,869921,32.247873,-123.487950,13.924,32.967,0.299,0.745
20050114,010252,869950,32.247935,-123.488275,13.926,32.969,0.290,0.730
20050114,010323,869982,32.248037,-123.488591,13.924,32.969,0.290,0.729
20050114,010352,870010,32.248132,-123.488903,13.925,32.966,0.290,0.728
20050114,010422,870041,32.248248,-123.489250,13.929,32.964,0.299,0.742
20050114,010453,870071,32.248367,-123.489586,13.930,32.967,0.290,0.727
20050114,010522,870100,32.248477,-123.489928,13.929,32.969,0.290,0.726
20050114,010552,870130,32.248598,-123.490250,13.929,32.965,0.290,0.726
20050114,010623,870162,32.248667,-123.490456,13.929,32.966,0.290,0.725
20050114,010652,870191,32.248687,-123.490561,13.928,32.967,0.290,0.725
20050114,010722,870221,32.248712,-123.490660,13.925,32.969,0.290,0.724
20050114,010753,870251,32.248723,-123.490745,13.921,32.968,0.290,0.724
20050114,010823,870282,32.248718,-123.490878,13.920,32.967,0.290,0.723
20050114,010853,870312,32.248727,-123.491095,13.920,32.967,0.290,0.723
20050114,010922,870340,32.248732,-123.491276,13.920,32.966,0.290,0.723
20050114,010952,870371,32.248723,-123.491363,13.917,32.966,0.299,0.737
20050114,011023,870401,32.248682,-123.491430,13.917,32.966,0.299,0.737
20050114,011053,870431,32.248672,-123.491486,13.915,32.966,0.290,0.722
20050114,011122,870460,32.248667,-123.491570,13.914,32.965,0.299,0.736
20050114,011153,870492,32.248618,-123.491655,13.920,32.964,0.290,0.721
20050114,011222,870520,32.248583,-123.491725,13.919,32.964,0.290,0.721
20050114,011253,870551,32.248567,-123.491808,13.920,32.966,0.299,0.736
20050114,011323,870581,32.248597,-123.491930,13.921,32.964,0.290,0.721
20050114,011352,870610,32.248620,-123.492060,13.920,32.964,0.290,0.720
20050114,011423,870642,32.248648,-123.492185,13.919,32.964,0.290,0.720
20050114,011452,870670,32.248653,-123.492295,13.915,32.968,0.290,0.720
20050114,011523,870701,32.248663,-123.492413,13.917,32.966,0.290,0.719
20050114,011552,870731,32.248685,-123.492540,13.916,32.964,0.290,0.719
20050114,011622,870761,32.248712,-123.492695,13.921,32.962,0.290,0.719
20050114,011653,870792,32.248738,-123.492785,13.922,32.963,0.290,0.719
20050114,011723,870822,32.248753,-123.492888,13.923,32.962,0.290,0.718
20050114,011753,870851,32.248785,-123.493061,13.926,32.963,0.299,0.733
20050114,011823,870881,32.248822,-123.493233,13.926,32.964,0.299,0.732
20050114,011853,870911,32.248845,-123.493356,13.923,32.967,0.299,0.732
20050114,011923,870941,32.248860,-123.493416,13.924,32.963,0.290,0.717
20050114,011953,870972,32.248850,-123.493503,13.926,32.965,0.299,0.731
20050114,012023,871002,32.248868,-123.493606,13.929,32.964,0.290,0.717
20050114,012053,871031,32.248885,-123.493723,13.927,32.966,0.290,0.716
20050114,012123,871061,32.248893,-123.493828,13.928,32.963,0.290,0.716
20050114,012154,871093,32.248868,-123.493885,13.927,32.964,0.299,0.730
20050114,012224,871122,32.248877,-123.493925,13.927,32.965,0.299,0.730
20050114,012254,871152,32.248890,-123.494040,13.926,32.965,0.290,0.715
20050114,012323,871182,32.248930,-123.494220,13.926,32.962,0.299,0.729
20050114,012353,871211,32.248933,-123.494300,13.926,32.966,0.290,0.715
20050114,012423,871241,32.248918,-123.494353,13.926,32.963,0.299,0.729
20050114,012453,871271,32.248918,-123.494423,13.925,32.964,0.299,0.729
20050114,012523,871302,32.248933,-123.494468,13.924,32.963,0.290,0.714
20050114,012553,871332,32.249045,-123.494575,13.926,32.964,0.290,0.714
20050114,012623,871361,32.249255,-123.494693,13.926,32.963,0.290,0.714
20050114,012654,871393,32.249520,-123.494833,13.926,32.961,0.290,0.713
20050114,012724,871423,32.249830,-123.494991,13.926,32.963,0.299,0.728
20050114,012753,871452,32.250133,-123.495153,13.929,32.962,0.290,0.713
20050114,012823,871482,32.250375,-123.495261,13.929,32.963,0.299,0.728
20050114,012853,871512,32.250553,-123.495343,13.932,32.962,0.290,0.713
20050114,012924,871543,32.250853,-123.495468,13.934,32.963,0.290,0.713
20050114,012954,871573,32.251258,-123.495658,13.936,32.963,0.299,0.727
20050114,013023,871601,32.251687,-123.495848,13.937,32.964,0.290,0.713
20050114,013054,871632,32.252137,-123.495776,13.938,32.963,0.299,0.727
20050114,013124,871662,32.252420,-123.495285,13.938,32.965,0.290,0.713
20050114,013154,871692,32.252582,-123.494603,13.938,32.964,0.290,0.713
20050114,013225,871723,32.252862,-123.493723,13.942,32.971,0.299,0.727
20050114,013255,871753,32.253235,-123.492820,13.936,32.966,0.299,0.727
20050114,013325,871784,32.253617,-123.491725,13.935,32.965,0.290,0.713
20050114,013355,871814,32.254052,-123.490538,13.933,32.965,0.290,0.713
20050114,013424,871842,32.254517,-123.489275,13.929,32.967,0.299,0.727
20050114,013454,871873,32.255015,-123.487976,13.928,32.966,0.290,0.713
20050114,013525,871903,32.255573,-123.486576,13.925,32.967,0.290,0.713
20050114,013555,871933,32.256155,-123.485091,13.920,32.969,0.290,0.713
20050114,013625,871964,32.256798,-123.483468,13.916,32.967,0.299,0.727
20050114,013654,871992,32.257418,-123.481950,13.912,32.968,0.299,0.727
20050114,013725,872023,32.258082,-123.480293,13.907,32.971,0.290,0.713
20050114,013755,872053,32.258690,-123.478740,13.903,32.966,0.290,0.713
20050114,013825,872083,32.259355,-123.477070,13.898,32.971,0.290,0.712
20050114,013855,872113,32.259985,-123.475453,13.893,32.974,0.299,0.727
20050114,013926,872144,32.260618,-123.473836,13.891,32.971,0.290,0.712
20050114,013955,872174,32.261227,-123.472286,13.885,32.974,0.299,0.727
20050114,014025,872203,32.261873,-123.470631,13.875,32.979,0.299,0.726
20050114,014055,872233,32.262468,-123.469113,13.856,32.988,0.290,0.712
20050114,014126,872265,32.263112,-123.467480,13.833,32.991,0.290,0.712
20050114,014155,872294,32.263725,-123.465903,13.820,32.992,0.290,0.712
20050114,014226,872324,32.264348,-123.464333,13.811,32.988,0.299,0.726
20050114,014255,872354,32.264982,-123.462740,13.809,32.986,0.299,0.726
20050114,014325,872383,32.265592,-123.461211,13.805,32.986,0.299,0.726
20050114,014356,872415,32.266250,-123.459571,13.803,32.986,0.299,0.726
20050114,014425,872443,32.266890,-123.457991,13.800,32.989,0.299,0.726
20050114,014455,872474,32.267502,-123.456468,13.798,32.986,0.290,0.711
20050114,014525,872504,32.268145,-123.454825,13.798,32.985,0.290,0.711
20050114,014556,872535,32.268783,-123.453248,13.796,32.987,0.290,0.711
20050114,014625,872563,32.269423,-123.451655,13.797,32.989,0.299,0.726
20050114,014655,872593,32.270033,-123.450106,13.790,32.989,0.290,0.711
20050114,014725,872624,32.270707,-123.448470,13.790,32.983,0.299,0.726
20050114,014756,872654,32.271328,-123.446870,13.798,32.981,0.290,0.711
20050114,014825,872684,32.271963,-123.445271,13.798,32.980,0.290,0.711
20050114,014856,872715,32.272600,-123.443688,13.798,32.983,0.299,0.726
20050114,014925,872743,32.273253,-123.442111,13.795,32.983,0.299,0.726
20050114,014956,872775,32.273910,-123.440530,13.797,32.982,0.290,0.711
20050114,015025,872804,32.274545,-123.438918,13.798,32.981,0.290,0.711
20050114,015056,872834,32.275177,-123.437306,13.795,32.982,0.299,0.726
20050114,015125,872864,32.275837,-123.435703,13.794,32.983,0.290,0.711
20050114,015155,872893,32.276465,-123.434088,13.790,32.984,0.290,0.711
20050114,015225,872923,32.277123,-123.432493,13.787,32.986,0.299,0.726
20050114,015255,872953,32.277777,-123.430881,13.782,32.988,0.290,0.711
20050114,015326,872984,32.278410,-123.429265,13.779,32.987,0.290,0.711
20050114,015355,873014,32.279043,-123.427713,13.776,32.990,0.290,0.711
20050114,015425,873043,32.279708,-123.426048,13.774,32.988,0.299,0.726
20050114,015456,873075,32.280358,-123.424441,13.773,32.990,0.299,0.726
20050114,015526,873105,32.281012,-123.422763,13.768,32.993,0.299,0.726
20050114,015556,873134,32.281643,-123.421201,13.763,32.993,0.290,0.711
20050114,015625,873164,32.282293,-123.419590,13.757,32.995,0.299,0.726
20050114,015656,873194,32.282958,-123.417983,13.753,32.997,0.290,0.711
20050114,015725,873223,32.283588,-123.416387,13.747,32.999,0.290,0.711
20050114,015756,873255,32.284227,-123.414798,13.737,33.001,0.290,0.711
20050114,015826,873284,32.284885,-123.413158,13.727,33.004,0.290,0.711
20050114,015855,873314,32.285512,-123.411613,13.730,32.998,0.299,0.726
20050114,015925,873344,32.286170,-123.410023,13.730,32.999,0.299,0.726
20050114,015956,873374,32.286823,-123.408442,13.721,33.004,0.299,0.726
20050114,020026,873405,32.287493,-123.406808,13.726,33.001,0.290,0.711
20050114,020055,873433,32.288110,-123.405302,13.745,33.001,0.290,0.711
20050114,020126,873464,32.288768,-123.403743,13.755,33.008,0.290,0.711
20050114,020156,873494,32.289403,-123.402152,13.760,33.014,0.299,0.726
20050114,020225,873524,32.290058,-123.400597,13.761,33.018,0.290,0.711
20050114,020256,873555,32.290742,-123.398968,13.765,33.019,0.290,0.711
20050114,020326,873585,32.291378,-123.397438,13.762,33.023,0.290,0.711
20050114,020356,873615,32.292050,-123.395807,13.760,33.020,0.299,0.726
20050114,020425,873644,32.292688,-123.394272,13.768,33.016,0.290,0.711
20050114,020456,873674,32.293393,-123.392657,13.773,33.020,0.299,0.726
20050114,020526,873704,32.294067,-123.391097,13.775,33.019,0.290,0.711
20050114,020555,873733,32.294678,-123.389582,13.774,33.024,0.290,0.711
20050114,020625,873763,32.295347,-123.388028,13.770,33.027,0.299,0.726
20050114,020655,873793,32.296013,-123.386445,13.767,33.025,0.299,0.726
20050114,020726,873824,32.296668,-123.384862,13.766,33.021,0.299,0.726
20050114,020756,873854,32.297363,-123.383237,13.764,33.022,0.290,0.711
20050114,020826,873885,32.298042,-123.381667,13.761,33.023,0.290,0.711
20050114,020855,873913,32.298680,-123.380138,13.758,33.023,0.299,0.726
20050114,020925,873943,32.299342,-123.378567,13.757,33.021,0.290,0.711
20050114,020955,873974,32.300015,-123.377005,13.757,33.020,0.290,0.711
20050114,021026,874004,32.300695,-123.375378,13.758,33.019,0.290,0.711
20050114,021056,874034,32.301360,-123.373865,13.755,33.021,0.299,0.726
20050114,021126,874065,32.302043,-123.372232,13.750,33.022,0.299,0.726
20050114,021156,874095,32.302713,-123.370662,13.743,33.020,0.290,0.711
20050114,021225,874123,32.303372,-123.369143,13.739,33.019,0.290,0.711
20050114,021255,874154,32.304057,-123.367567,13.731,33.019,0.299,0.726
20050114,021327,874186,32.304772,-123.365947,13.726,33.017,0.290,0.711
20050114,021357,874215,32.305448,-123.364377,13.725,33.012,0.299,0.726
20050114,021426,874245,32.306138,-123.362822,13.726,33.010,0.299,0.726
20050114,021456,874275,32.306808,-123.361245,13.728,33.009,0.290,0.711
20050114,021526,874304,32.307492,-123.359737,13.729,33.011,0.299,0.726
20050114,021557,874336,32.308187,-123.358123,13.725,33.010,0.290,0.711
20050114,021627,874366,32.308878,-123.356568,13.729,33.008,0.299,0.726
20050114,021657,874395,32.309560,-123.355012,13.728,33.010,0.299,0.726
20050114,021727,874425,32.310243,-123.353450,13.726,33.009,0.290,0.711
20050114,021757,874455,32.310945,-123.351902,13.724,33.011,0.290,0.711
20050114,021827,874486,32.311622,-123.350335,13.721,33.011,0.290,0.711
20050114,021857,874516,32.312323,-123.348782,13.720,33.010,0.290,0.711
20050114,021926,874544,32.313023,-123.347222,13.721,33.009,0.290,0.711
20050114,021957,874575,32.313733,-123.345675,13.724,33.008,0.290,0.711
20050114,022027,874605,32.314420,-123.344093,13.725,33.010,0.299,0.726
20050114,022057,874636,32.315103,-123.342548,13.724,33.011,0.290,0.711
20050114,022127,874666,32.315793,-123.340985,13.719,33.014,0.299,0.726
20050114,022156,874694,32.316482,-123.339432,13.716,33.013,0.290,0.711
20050114,022227,874725,32.317188,-123.337892,13.714,33.011,0.290,0.711
20050114,022257,874755,32.317883,-123.336353,13.714,33.010,0.290,0.711
20050114,022327,874785,32.318597,-123.334843,13.714,33.011,0.290,0.711
20050114,022357,874816,32.319283,-123.333293,13.710,33.010,0.290,0.711
20050114,022427,874846,32.320027,-123.331773,13.709,33.007,0.299,0.726
20050114,022456,874874,32.320732,-123.330280,13.711,33.004,0.290,0.711
20050114,022527,874905,32.321478,-123.328683,13.716,32.999,0.290,0.711
20050114,022557,874935,32.322192,-123.327132,13.720,32.998,0.299,0.726
20050114,022627,874965,32.322923,-123.325588,13.725,32.998,0.299,0.726
20050114,022657,874996,32.323642,-123.324043,13.731,32.995,0.290,0.711
20050114,022726,875024,32.324347,-123.322492,13.734,32.995,0.299,0.726
20050114,022756,875054,32.325062,-123.320953,13.740,32.994,0.290,0.711
20050114,022827,875085,32.325773,-123.319397,13.742,32.998,0.290,0.711
20050114,022857,875115,32.326495,-123.317865,13.743,32.997,0.290,0.711
20050114,022927,875146,32.327193,-123.316295,13.743,32.998,0.290,0.711
20050114,022957,875176,32.327937,-123.314758,13.746,32.998,0.299,0.726
20050114,023027,875206,32.328640,-123.313213,13.745,32.997,0.299,0.726
20050114,023057,875235,32.329353,-123.311678,13.750,32.994,0.290,0.711
20050114,023127,875265,32.330063,-123.310128,13.757,32.993,0.290,0.711
20050114,023157,875295,32.330763,-123.308580,13.761,32.993,0.290,0.711
20050114,023227,875326,32.331508,-123.307002,13.766,32.995,0.290,0.711
20050114,023257,875356,32.332203,-123.305522,13.772,32.995,0.290,0.711
20050114,023326,875384,32.332908,-123.303960,13.776,32.993,0.290,0.711
20050114,023357,875415,32.333648,-123.302368,13.779,32.992,0.299,0.726
20050114,023427,875445,32.334395,-123.300842,13.781,32.992,0.299,0.726
20050114,023457,875475,32.335073,-123.299352,13.787,32.991,0.299,0.726
20050114,023527,875506,32.335827,-123.297782,13.793,32.988,0.290,0.711
20050114,023557,875536,32.336497,-123.296292,13.799,32.987,0.299,0.726
20050114,023627,875565,32.337225,-123.294707,13.803,32.986,0.290,0.711
20050114,023657,875595,32.337973,-123.293207,13.811,32.987,0.290,0.711
20050114,023728,875627,32.338660,-123.291658,13.820,32.983,0.299,0.726
20050114,023757,875656,32.339372,-123.290113,13.825,32.980,0.290,0.711
20050114,023827,875686,32.340070,-123.288552,13.825,32.980,0.299,0.726
20050114,023857,875716,32.340792,-123.287007,13.828,32.978,0.290,0.711
20050114,023927,875745,32.341478,-123.285513,13.829,32.977,0.299,0.726
20050114,023958,875777,32.342212,-123.283915,13.833,32.974,0.290,0.711
20050114,024027,875805,32.342913,-123.282348,13.832,32.978,0.290,0.711
20050114,024058,875836,32.343630,-123.280795,13.834,32.976,0.290,0.711
20050114,024127,875866,32.344332,-123.279227,13.838,32.971,0.299,0.726
20050114,024157,875895,32.345007,-123.277722,13.840,32.971,0.299,0.726
20050114,024228,875927,32.345733,-123.276120,13.843,32.972,0.290,0.711
20050114,024257,875955,32.346423,-123.274548,13.852,32.966,0.290,0.711
20050114,024328,875986,32.347132,-123.273000,13.862,32.963,0.290,0.711
20050114,024358,876016,32.347833,-123.271437,13.864,32.964,0.299,0.726
20050114,024428,876046,32.348530,-123.269895,13.864,32.966,0.290,0.711
20050114,024458,876077,32.349245,-123.268287,13.864,32.966,0.290,0.711
20050114,024528,876107,32.349927,-123.266782,13.864,32.966,0.290,0.711
20050114,024558,876137,32.350653,-123.265177,13.864,32.965,0.299,0.726
20050114,024628,876166,32.351323,-123.263680,13.867,32.964,0.299,0.726